Retour au catalogue

DIRECTV 7S

ActifCommunicationsGEO
NORAD 28238·PAYLOAD·🇺🇸 United States

Lancé May 4, 2004 depuis Sea Launch Platform

Loading…

TLE

FraisSource: Space-Track

Époque: Sep 14, 2026, 07:00 UTC

1 28238U 04016A   26257.29206439 -.00000134  00000-0  00000-0 0  9990
2 28238   5.3562  73.8215 0006412 107.6985 287.3174  0.98919514 81682

Suivez DIRECTV 7S en temps réel avec AllMySat

Download on the App Store